Location: Binningen
(47.7924°N, 8.7261°E)
Time: 07:01:12
(UTC+00:00)

Meteor 1-19 Rocket - Pass Details

Date: 17 May 2021
Orbit: 808 x 927 km, 81.2° (Epoch: 16 June)

Event Time Altitude Azimuth Distance (km) Brightness Sun altitude
Exits shadow 21:35:55 30° 182° (S) 1,419 4.9 -18.6°
Maximum altitude 21:38:41 80° 99° (E) 828 4.0 -18.8°
Drops below altitude 10° 21:44:08 10° 14° (NNE) 2,420 7.3 -19.2°
Sets 21:46:33 0° 13° (NNE) 3,367 8.2 -19.4°
